Regional Weather Roundup
Issued by NWS

Home | Current Version | Previous Version | Graphics & Text | Print | Product List | Glossary On
Versions: 1 2 3 4 5 6 7 8 9 10 11 12 13 14 15 16 17 18 19 20 21 22 23 24 25 26 27 28 29 30 31 32 33 34 35 36 37 38 39 40 41 42 43 44 45 46 47 48 49 50
000
ASUS43 KIND 282209
RWRIN

WEATHER ROUNDUP FOR INDIANA
NATIONAL WEATHER SERVICE INDIANAPOLIS IN
500 PM EST WED JAN 28 2015

NOTE: "FAIR" INDICATES FEW OR NO CLOUDS BELOW 12,000 FEET WITH NO
SIGNIFICANT WEATHER AND/OR OBSTRUCTIONS TO VISIBILITY.

* - STATION DOES NOT REPORT WEATHER SUCH AS PRECIPITATION OR FOG.

+ - STATION NOT QUALITY CONTROLLED BY THE NATIONAL WEATHER SERVICE.
    USE DATA WITH CAUTION...ESPECIALLY DEWPOINT AND RELATIVE
    HUMIDITY OBSERVATIONS.

INZ001>003-010>013-019-020-282300-
NORTHWEST INDIANA

CITY           SKY/WX    TMP DP  RH WIND       PRES   REMARKS
GARY /AIRPORT/ MOCLDY    36  18  48 SE17G29   30.11F
KNOX *+        MOCLDY    31   6  34 SE13      30.14F WCI  21
LA PORTE +     MOCLDY    32  20  60 SE9G17    30.14F WCI  24
MICHIGAN CITY+ MOCLDY    32  12  43 SE12G17   30.13F WCI  23
MONTICELLO +   MOCLDY    34  20  56 SE7       30.14F WCI  28
RENSSELAER +   MOCLDY    34  27  75 SE10G20   30.12F WCI  26
VALPARAISO     MOCLDY    31  19  61 SE13      30.12F WCI  21

$$

LMZ046-743>745-282300-
SOUTHERN LAKE MICHIGAN

STATION/POSITION TIME  TEMP WIND        PRES
                       AIR  DIR/SP/G
                 (UTC) (F)  (DEG/KT/KT) (MB)
MICHIGAN CITY    2200   31  130/ 12/ 16   N/A

$$

INZ004-005-014>016-021>024-282300-
NORTH CENTRAL INDIANA

CITY           SKY/WX    TMP DP  RH WIND       PRES   REMARKS
GOSHEN         MOCLDY    28  11  48 SE13      30.17F WCI  17
LOGANSPORT +   MOCLDY    32  23  69 SE9       30.17F WCI  24
PERU/GRISSOM   MOCLDY    31  21  64 SE12      30.17F WCI  22
ROCHESTER +    MOCLDY    32  21  64 SE10      30.18F WCI  24
SOUTH BEND     MOCLDY    30  14  51 SE15      30.16F WCI  19
WARSAW +       MOCLDY    28  18  64 SE10      30.18F WCI  19

$$

INZ006>009-017-018-025>027-282300-
NORTHEAST INDIANA

CITY           SKY/WX    TMP DP  RH WIND       PRES   REMARKS
ANGOLA *+      CLEAR     25  12  58 S9        30.20F WCI  15
AUBURN +       MOCLDY    27  14  59 SE6       30.23F WCI  20
FORT WAYNE     MOCLDY    27  16  63 SE9       30.23F WCI  18
HUNTINGTON +   MOCLDY    28  11  49 SE7       30.20F WCI  21

$$

INZ028-029-035-036-043>045-051>053-282300-
WEST CENTRAL INDIANA

CITY           SKY/WX    TMP DP  RH WIND       PRES   REMARKS
CRAWFORDSVL +  PTCLDY    33  14  45 SE12      30.14F WCI  24
GREENCASTLE +  CLEAR     34  14  44 S13       30.16F WCI  25
LAFAYETTE      PTCLDY    36  17  46 S14G22    30.14F
TERRE HAUTE    SUNNY     37  19  48 SE13      30.15F

$$

INZ030>032-037>040-046>048-054>057-064-065-282300-
CENTRAL INDIANA

CITY           SKY/WX    TMP DP  RH WIND       PRES   REMARKS
CP ATTERBURY + PTCLDY    36  18  48 SE10      30.21F
COLUMBUS       CLEAR     36  12  38 S14G21    30.21F
INDIANAPOLIS   MOCLDY    33  16  49 SE15      30.18F WCI  23
-EAGLE CREEK   PTCLDY    35  15  44 S12       30.18F WCI  27
KOKOMO *+      MOCLDY    32  21  64 S14       30.18F WCI  22
MARION +       MOCLDY    31  19  61 SE10      30.20F WCI  22
MT COMFORT *+  PTCLDY    36   9  32 S9        30.20F
SHELBYVILLE    PTCLDY    37  19  48 S16       30.20F
ZIONSVILLE +   PTCLDY    36  15  43 S14G20    30.17F

$$

INZ033-034-041-042-049-050-058-059-282300-
EAST CENTRAL INDIANA

CITY           SKY/WX    TMP DP  RH WIND       PRES   REMARKS
MUNCIE         PTCLDY    31  18  58 SE9       30.20F WCI  23

$$

INZ060-061-067>069-081>083-085>088-282300-
SOUTHWEST INDIANA

CITY           SKY/WX    TMP DP  RH WIND       PRES   REMARKS
EVANSVILLE     SUNNY     44  23  43 SE8       30.17F
HUNTINGBURG *+ SUNNY     41  19  42 SE14      30.19F
WASHINGTON +   MOSUNNY   39  16  40 S13       30.17F

$$

INZ062-063-066-070>080-084-089>092-282300-
SOUTH CENTRAL AND SOUTHEAST INDIANA

CITY           SKY/WX    TMP DP  RH WIND       PRES   REMARKS
BLOOMINGTON    PTCLDY    37  16  42 SE9       30.17F

$$




USA.gov is the U.S. government's official web portal to all federal, state and local government web resources and services.